Lexington Weather

Lexington, Massachusetts, USA

34°F
10/30/2020 6:45am 
  • Lexington Conditions: Light snow, Mist, Overcast
  • Temperature: 34.0°F / 1.1°CColder 1.4°F than last hour.
  • Dew Point: 33.3°FDecreased 1.4°Fsince last hour.
  • Relative Humidity: 97
  • Wind: Wind from NNE NNE 2 mph, 10-min avg: 2 mph, gust: 8 mph
  • Barometer: 29.76 in Steady
  • Visibility: 4 miles
  • Rain Today: 0.09 in
  •   
Southeast Middlesex County - Winter Weather Advisory
 - SEE ALL NEARBY ALERTS -

Regional Weather Roundup
for Boston / Norton, MA

        
000
ASUS41 KBOX 290505
RWRBOX

REGIONAL WEATHER ROUNDUP
NATIONAL WEATHER SERVICE BOSTON/NORTON MA
100 AM EDT THU OCT 29 2020

NOTE:  "FAIR" INDICATES FEW OR NO CLOUDS BELOW 12,000 FEET WITH NO 
SIGNIFICANT WEATHER AND/OR OBSTRUCTIONS TO VISIBILITY.

MAZALL-290600-
EASTERN MASSACHUSETTS
  
CITY           SKY/WX    TMP DP  RH WIND       PRES   REMARKS
BOSTON         MOCLDY    47  45  93 W9        29.95S                  
BEVERLY        CLOUDY    46  45  96 W6        29.94S                  
LAWRENCE       CLOUDY    44  43  96 SW6       29.96S FOG              
BEDFORD        FOG       44  44 100 W3        29.94R VSB 1            
BLUE HILL        N/A     44  44 100 W12       29.93S                  
NORWOOD        CLEAR     48  44  86 W5        29.95S                  
MARSHFIELD     MOCLDY    46  46 100 W3        29.95S                  
PLYMOUTH       PTCLDY    45  44  97 W3        29.95S                  
TAUNTON        FOG       42  40  92 CALM      29.96R VSB 1            
NEW BEDFORD    MOCLDY    46  45  96 CALM      29.95S                  
$$

MAZALL-290600-
CAPE COD AND THE ISLANDS
  
CITY           SKY/WX    TMP DP  RH WIND       PRES   REMARKS
FALMOUTH       PTCLDY    46  46 100 CALM      29.95S                  
HYANNIS        MOCLDY    47  46  97 NW3       29.94R                  
CHATHAM        MOCLDY    49  47  93 CALM      29.95S                  
PROVINCETOWN   CLOUDY    49  47  93 W10       29.95                   
NANTUCKET      CLOUDY   N/A N/A N/A CALM      29.96R                  
MARTHAS VNYRD  MOCLDY    46  45  96 W3        29.96R                  
$$
 
MAZALL-290600-
CENTRAL AND WESTERN MASSACHUSETTS
  
CITY           SKY/WX    TMP DP  RH WIND       PRES   REMARKS
WORCESTER      CLOUDY    45  43  93 W7        29.94S                  
FITCHBURG      FOG       40  39  97 CALM      29.95F VSB 1            
ORANGE         CLOUDY    43  42  97 CALM      29.97R                  
SPRINGFIELD    CLOUDY    47  47  99 CALM      29.95F                  
WESTFIELD      FOG       45  45 100 W3        29.96S VSB 1/4          
NORTH ADAMS    CLOUDY    47  42  83 W10       29.95F                  
PITTSFIELD     CLOUDY    43  41  93 W3        29.94F                  
$$
 
RIZALL-290600-
RHODE ISLAND
  
CITY           SKY/WX    TMP DP  RH WIND       PRES   REMARKS
PROVIDENCE     CLOUDY    48  47  96 NW6       29.97R                  
NEWPORT        MOCLDY    49  48  97 W5        29.96R                  
BLOCK ISLAND   CLOUDY    50  48  93 W3        29.97S                  
SMITHFIELD     CLOUDY    45  45 100 W5        29.95S                  
WESTERLY       CLOUDY    46  44  93 CALM      29.97R FOG              
$$
 
CTZALL-290600-
CONNECTICUT
  
CITY           SKY/WX    TMP DP  RH WIND       PRES   REMARKS
BRADLEY INTL   FOG       47  46  97 CALM      29.96S VSB 1/2          
HARTFORD       FOG       49  47  93 S3        29.97R VSB 1/2          
BRIDGEPORT     CLOUDY    52  50  93 CALM      29.96F                  
DANBURY        CLOUDY    46  45  96 CALM      29.97F                  
GROTON         CLOUDY    46  45  96 N3        29.96R                  
NEW HAVEN      CLOUDY    49  48  97 CALM      29.96S                  
CHESTER        FAIR      48  48 100 CALM      29.96S                  
MERIDEN        CLOUDY    45  45 100 CALM      29.96S FOG              
WILLIMANTIC    CLOUDY    49  47  93 CALM      29.97R                  
OXFORD         MOCLDY    48  48 100 CALM      29.96F                  
$$

MEZ002-015-021-024-NHZ003-005-008-011-012-014-VTZ005-008-290600-
NORTHERN NEW ENGLAND
  
CITY           SKY/WX    TMP DP  RH WIND       PRES   REMARKS
PORTLAND ME    CLEAR     37  37 100 SW5       29.93S                  
BANGOR ME      CLOUDY    35  32  88 CALM      29.91S                  
CONCORD NH     FOG       41  40  96 CALM      29.94S VSB 1/4          
MANCHESTER NH  FOG       43  41  93 CALM      29.93R VSB 1/4          
NASHUA NH      FOG       40  40 100 CALM      29.96R VSB 1/2          
PORTSMOUTH NH  CLOUDY    44  43  99 W8        29.92S FOG              
JAFFREY NH     CLOUDY    42  40  92 W5        29.94R                  
KEENE NH       CLOUDY    42  42 100 SW5       29.95F                  
BURLINGTON VT  CLOUDY    46  38  73 S5        29.93R                  
MT. WASHINGTON FOG       23  23 100 W51G58      N/A  VSB 1/16WCI   1  
$$

NYZ052-076-290600-
EASTERN NEW YORK
  
CITY           SKY/WX    TMP DP  RH WIND       PRES   REMARKS
ALBANY         FOG       39  39 100 CALM      29.98F VSB 1/8          
NEW YORK CITY  CLOUDY    58  48  69 W6        29.96S                  
$$
 
ANZALL-290600-
MARINE OBSERVATIONS
  
STATION/POSITION TIME  TEMP    WIND        PRES    VSBY  WAVE
                       AIR SEA DIR/SP/G                  HT/PER
                 (UTC) (F)     (DEG/KT/KT) (MB)    (MI)  (FT/S)
BOSTON BUOY      0450   49 56  260/ 10/ 14 1014.4S         2/ 9
BUZZARDS BAY     0400          310/  9/ 10 1015.2F
NANTUCKET SOUND  0450      60  310/ 10/ 12   N/A           1/ 3
MASS BAY-STELLWA 0404   48 56  270/ 12/ 16 1013.1R  1 7/8  2/ 5
ISLE OF SHOALS   0400   44     260/ 10/ 11 1013.4R
S OF BLOCK IS    0426      62                N/A           4/ 7
$$

......................KEY.........................
  SKY/WX - SKY CONDITION/PRESENT WEATHER
  TMP    - TEMPERATURE IN FAHRENHEIT
  DWPT   - DEWPOINT IN FAHRENHEIT
  RH     - RELATIVE HUMIDITY IN PERCENT
  WIND   - DIRECTION AND SPEED IN MPH
  PRES   - MEAN SEA LEVEL PRESSURE IN INCHES OF HG
  WCI    - WIND CHILL INDEX
  VSB    - VISIBILITY IN MILES
  HX     - HEAT INDEX
  TC     - TEMPERATURE IN CELSIUS
  VRB    - VARIABLE WIND DIRECTION
  N/A    - NOT AVAILABLE
  
      

Other recent Regional Weather Roundups

Fri Oct 30, 6:04am

Fri Oct 30, 5:04am

Fri Oct 30, 4:04am

Fri Oct 30, 3:04am

Fri Oct 30, 2:04am

Fri Oct 30, 1:04am

Fri Oct 30, 12:04am

Thu Oct 29, 11:04pm

Thu Oct 29, 10:04pm

Thu Oct 29, 9:04pm

Thu Oct 29, 8:04pm

Thu Oct 29, 7:04pm

Thu Oct 29, 6:04pm

Thu Oct 29, 5:05pm

Thu Oct 29, 4:05pm

Thu Oct 29, 3:05pm

Thu Oct 29, 2:04pm

Thu Oct 29, 1:04pm

Thu Oct 29, 12:04pm

Thu Oct 29, 11:04am

Thu Oct 29, 10:04am

Thu Oct 29, 9:04am

Thu Oct 29, 8:04am

Thu Oct 29, 7:04am

Thu Oct 29, 6:04am

Thu Oct 29, 5:04am

Thu Oct 29, 4:04am

Thu Oct 29, 3:04am

Thu Oct 29, 2:04am

Thu Oct 29, 12:04am

Wed Oct 28, 11:05pm

Wed Oct 28, 10:04pm

Wed Oct 28, 9:04pm

Wed Oct 28, 8:04pm

Wed Oct 28, 7:05pm

Wed Oct 28, 6:04pm

Wed Oct 28, 5:05pm

Wed Oct 28, 4:04pm

Wed Oct 28, 3:04pm

Wed Oct 28, 2:04pm

Wed Oct 28, 1:05pm

Wed Oct 28, 12:05pm

Wed Oct 28, 11:05am

Wed Oct 28, 10:04am

Wed Oct 28, 9:04am

Wed Oct 28, 8:04am

Wed Oct 28, 7:04am

Wed Oct 28, 6:04am

Wed Oct 28, 5:05am

Wed Oct 28, 4:04am

Wed Oct 28, 3:04am

Wed Oct 28, 2:04am

Wed Oct 28, 1:05am

Wed Oct 28, 12:04am

Tue Oct 27, 11:04pm

Tue Oct 27, 10:04pm

Tue Oct 27, 9:05pm

Tue Oct 27, 8:04pm

Tue Oct 27, 7:04pm

Tue Oct 27, 6:04pm

Tue Oct 27, 5:04pm

Tue Oct 27, 4:05pm

Tue Oct 27, 3:04pm

Tue Oct 27, 2:04pm

Tue Oct 27, 1:04pm

Tue Oct 27, 12:04pm

Tue Oct 27, 11:04am

Tue Oct 27, 10:04am

Tue Oct 27, 9:04am

Tue Oct 27, 8:04am

Tue Oct 27, 7:04am

Tue Oct 27, 6:04am

Tue Oct 27, 5:04am

Tue Oct 27, 4:04am

Tue Oct 27, 3:04am

Tue Oct 27, 2:05am

Tue Oct 27, 1:04am

Tue Oct 27, 12:04am

Mon Oct 26, 11:05pm

Mon Oct 26, 10:04pm

Mon Oct 26, 9:04pm

Mon Oct 26, 8:04pm

Mon Oct 26, 7:04pm

Mon Oct 26, 6:04pm

Mon Oct 26, 5:04pm

Mon Oct 26, 4:05pm

Mon Oct 26, 2:04pm

Mon Oct 26, 1:04pm

Mon Oct 26, 12:04pm

Mon Oct 26, 11:05am

Mon Oct 26, 10:04am

Mon Oct 26, 9:04am

Mon Oct 26, 8:04am

Mon Oct 26, 7:04am

Mon Oct 26, 6:04am

Mon Oct 26, 5:04am

Mon Oct 26, 4:04am

Mon Oct 26, 3:04am

Mon Oct 26, 2:04am

Mon Oct 26, 1:04am

Mon Oct 26, 12:04am

Sun Oct 25, 11:05pm

Sun Oct 25, 10:04pm

Sun Oct 25, 9:04pm

Sun Oct 25, 8:04pm

Sun Oct 25, 7:04pm

Sun Oct 25, 6:04pm

Sun Oct 25, 5:04pm

Sun Oct 25, 4:05pm

Sun Oct 25, 3:04pm

Sun Oct 25, 2:04pm

Sun Oct 25, 1:04pm

Sun Oct 25, 12:04pm

Sun Oct 25, 11:04am

Sun Oct 25, 10:04am

Sun Oct 25, 9:04am

Sun Oct 25, 8:04am

Sun Oct 25, 7:04am

Sun Oct 25, 6:04am

Sun Oct 25, 5:04am

Sun Oct 25, 4:04am

Sun Oct 25, 3:04am

Sun Oct 25, 2:04am

Sun Oct 25, 1:05am

Sun Oct 25, 12:04am

Sat Oct 24, 11:04pm

Sat Oct 24, 10:04pm

Sat Oct 24, 9:04pm

Sat Oct 24, 8:04pm

Sat Oct 24, 7:04pm

Sat Oct 24, 6:04pm

Sat Oct 24, 5:05pm

Sat Oct 24, 4:04pm

Sat Oct 24, 3:04pm

Sat Oct 24, 2:04pm

Sat Oct 24, 1:05pm

Sat Oct 24, 12:04pm

Sat Oct 24, 11:05am

Sat Oct 24, 10:05am

Sat Oct 24, 9:04am

Sat Oct 24, 8:04am

Sat Oct 24, 7:04am

Sat Oct 24, 6:04am

Sat Oct 24, 5:04am

Sat Oct 24, 4:04am

Sat Oct 24, 3:04am

Sat Oct 24, 2:04am

Sat Oct 24, 1:05am

Sat Oct 24, 12:04am

Fri Oct 23, 11:04pm

Fri Oct 23, 10:04pm

Fri Oct 23, 9:04pm

Fri Oct 23, 8:05pm

Fri Oct 23, 7:04pm

Fri Oct 23, 6:04pm

Fri Oct 23, 5:05pm

Fri Oct 23, 4:04pm

Fri Oct 23, 3:04pm

Fri Oct 23, 2:05pm

Fri Oct 23, 1:04pm

Fri Oct 23, 12:04pm

Fri Oct 23, 11:04am

Fri Oct 23, 10:04am

Fri Oct 23, 9:04am

Fri Oct 23, 8:04am

Fri Oct 23, 7:04am

Meta data:

ID: 63929368-617b-4ea3-b289-922b57b34343
Link: https://api.weather.gov/products/63929368-617b-4ea3-b289-922b57b34343